Tiempo cada hora Almarza

Hoy, 3 Agosto, Martes

Tiempo Temperatura Precipitaciones Viento Presión Humedad
00:00 +13°C° 0 mm 1 mps 686 mmHg 86%
01:00 +13°C° 0 mm 1 mps 686 mmHg 83%
02:00 +13°C° 0 mm 1 mps 686 mmHg 81%
03:00 +13°C° 0 mm 1 mps 685 mmHg 78%
04:00 +14°C° 0 mm 1 mps 686 mmHg 78%
05:00 +14°C° 0 mm 1 mps 686 mmHg 79%
06:00 +14°C° 0 mm 1 mps 686 mmHg 79%
07:00 +18°C° 0 mm 1 mps 686 mmHg 67%
08:00 +20°C° 0 mm 1 mps 687 mmHg 56%
09:00 +23°C° 0 mm 2 mps 687 mmHg 45%
10:00 +25°C° 0 mm 2 mps 687 mmHg 40%
11:00 +26°C° 0 mm 3 mps 687 mmHg 35%
12:00 +28°C° 0 mm 3 mps 687 mmHg 30%
13:00 +29°C° 0 mm 3 mps 686 mmHg 28%
14:00 +29°C° 0 mm 3 mps 686 mmHg 27%
15:00 +30°C° 0 mm 3 mps 685 mmHg 25%
16:00 +28°C° 0 mm 3 mps 685 mmHg 32%
17:00 +26°C° 0 mm 3 mps 685 mmHg 39%
18:00 +24°C° 0 mm 3 mps 685 mmHg 46%
19:00 +21°C° 0 mm 2 mps 685 mmHg 55%
20:00 +19°C° 0 mm 2 mps 685 mmHg 64%
21:00 +18°C° 0 mm 1 mps 685 mmHg 73%
22:00 +18°C° 0 mm 1 mps 685 mmHg 74%
23:00 +16°C° 0 mm 1 mps 685 mmHg 76%

Mañana, 4 Agosto, Miércoles

Tiempo Temperatura Precipitaciones Viento Presión Humedad
00:00 +16°C° 0 mm 2 mps 685 mmHg 77%
01:00 +15°C° 0.1 mm 1 mps 685 mmHg 80%
02:00 +15°C° 0.1 mm 1 mps 685 mmHg 84%
03:00 +14°C° 0.1 mm 1 mps 685 mmHg 87%
04:00 +15°C° 0.1 mm 1 mps 685 mmHg 87%
05:00 +15°C° 0.1 mm 1 mps 685 mmHg 87%
06:00 +15°C° 0.1 mm 1 mps 685 mmHg 87%
07:00 +16°C° 0.1 mm 1 mps 686 mmHg 81%
08:00 +19°C° 0.1 mm 1 mps 686 mmHg 74%
09:00 +19°C° 0.1 mm 2 mps 686 mmHg 68%
10:00 +20°C° 0.3 mm 2 mps 687 mmHg 64%
11:00 +20°C° 0.3 mm 2 mps 687 mmHg 60%
12:00 +21°C° 0.3 mm 3 mps 687 mmHg 56%
13:00 +22°C° 0.1 mm 3 mps 687 mmHg 53%
14:00 +22°C° 0.1 mm 4 mps 687 mmHg 50%
15:00 +23°C° 0.1 mm 4 mps 687 mmHg 46%
16:00 +22°C° 0 mm 4 mps 687 mmHg 49%
17:00 +21°C° 0 mm 4 mps 687 mmHg 52%
18:00 +21°C° 0 mm 4 mps 687 mmHg 55%
19:00 +18°C° 0 mm 3 mps 687 mmHg 67%
20:00 +16°C° 0 mm 2 mps 687 mmHg 78%
21:00 +13°C° 0 mm 1 mps 688 mmHg 90%
22:00 +13°C° 0 mm 1 mps 687 mmHg 90%
23:00 +13°C° 0 mm 1 mps 687 mmHg 91%

Pasado mañana, 5 Agosto, Jueves

Tiempo Temperatura Precipitaciones Viento Presión Humedad
00:00 +13°C° 0 mm 1 mps 687 mmHg 91%
01:00 +13°C° 0 mm 1 mps 687 mmHg 89%
02:00 +13°C° 0 mm 1 mps 686 mmHg 88%
03:00 +13°C° 0 mm 1 mps 686 mmHg 86%
04:00 +13°C° 0 mm 1 mps 686 mmHg 84%
05:00 +14°C° 0 mm 1 mps 686 mmHg 81%
06:00 +14°C° 0 mm 1 mps 686 mmHg 78%
07:00 +18°C° 0 mm 1 mps 686 mmHg 66%
08:00 +21°C° 0 mm 1 mps 687 mmHg 54%
09:00 +24°C° 0 mm 1 mps 687 mmHg 42%
10:00 +26°C° 0 mm 2 mps 687 mmHg 37%
11:00 +27°C° 0 mm 2 mps 687 mmHg 33%
12:00 +29°C° 0 mm 2 mps 687 mmHg 29%
13:00 +30°C° 0 mm 3 mps 687 mmHg 27%
14:00 +32°C° 0 mm 4 mps 686 mmHg 25%
15:00 +33°C° 0 mm 4 mps 686 mmHg 23%
16:00 +32°C° 0 mm 4 mps 685 mmHg 25%
17:00 +30°C° 0 mm 4 mps 685 mmHg 27%
18:00 +29°C° 0 mm 4 mps 685 mmHg 29%
19:00 +26°C° 0 mm 3 mps 685 mmHg 41%
20:00 +21°C° 0 mm 2 mps 685 mmHg 53%
21:00 +18°C° 0 mm 1 mps 685 mmHg 65%
22:00 +16°C° 0 mm 1 mps 685 mmHg 69%
23:00 +15°C° 0 mm 1 mps 685 mmHg 74%

6 Agosto, Viernes

Tiempo Temperatura Precipitaciones Viento Presión Humedad
00:00 +15°C° 0 mm 1 mps 684 mmHg 79%
01:00 +14°C° 0 mm 1 mps 684 mmHg 80%
02:00 +14°C° 0 mm 1 mps 684 mmHg 82%
03:00 +13°C° 0 mm 1 mps 684 mmHg 84%
04:00 +14°C° 0 mm 1 mps 684 mmHg 82%
05:00 +13°C° 0 mm 0 mps 684 mmHg 81%
06:00 +13°C° 0 mm 0 mps 684 mmHg 80%
07:00 +18°C° 0 mm 1 mps 684 mmHg 69%
08:00 +20°C° 0 mm 1 mps 685 mmHg 59%
09:00 +23°C° 0 mm 1 mps 685 mmHg 48%
10:00 +25°C° 0 mm 2 mps 685 mmHg 40%
11:00 +27°C° 0 mm 3 mps 684 mmHg 33%
12:00 +30°C° 0 mm 3 mps 684 mmHg 25%
13:00 +31°C° 0 mm 3 mps 684 mmHg 22%
14:00 +33°C° 0 mm 4 mps 683 mmHg 19%
15:00 +34°C° 0 mm 4 mps 683 mmHg 16%
16:00 +33°C° 0 mm 4 mps 683 mmHg 18%
17:00 +30°C° 0 mm 3 mps 682 mmHg 20%
18:00 +29°C° 0 mm 3 mps 682 mmHg 22%
19:00 +26°C° 0 mm 3 mps 682 mmHg 33%
20:00 +21°C° 0 mm 2 mps 682 mmHg 44%
21:00 +19°C° 0 mm 1 mps 681 mmHg 56%
22:00 +18°C° 0 mm 1 mps 681 mmHg 58%
23:00 +16°C° 0 mm 1 mps 681 mmHg 61%

7 Agosto, Sábado

Tiempo Temperatura Precipitaciones Viento Presión Humedad
00:00 +16°C° 0 mm 1 mps 681 mmHg 63%
01:00 +15°C° 0 mm 1 mps 681 mmHg 66%
02:00 +14°C° 0 mm 1 mps 681 mmHg 68%
03:00 +14°C° 0 mm 1 mps 681 mmHg 71%
04:00 +14°C° 0 mm 1 mps 681 mmHg 72%
05:00 +14°C° 0 mm 1 mps 681 mmHg 73%
06:00 +14°C° 0 mm 1 mps 682 mmHg 74%
07:00 +16°C° 0 mm 1 mps 682 mmHg 66%
08:00 +18°C° 0 mm 2 mps 683 mmHg 57%
09:00 +20°C° 0 mm 2 mps 683 mmHg 48%
10:00 +23°C° 0 mm 2 mps 683 mmHg 42%
11:00 +24°C° 0 mm 3 mps 684 mmHg 35%
12:00 +26°C° 0 mm 3 mps 684 mmHg 29%
13:00 +26°C° 0 mm 4 mps 684 mmHg 28%
14:00 +27°C° 0 mm 4 mps 684 mmHg 26%
15:00 +27°C° 0 mm 4 mps 684 mmHg 25%
16:00 +25°C° 0 mm 4 mps 684 mmHg 33%
17:00 +22°C° 0 mm 4 mps 684 mmHg 41%
18:00 +21°C° 0 mm 4 mps 685 mmHg 48%
19:00 +18°C° 0 mm 3 mps 685 mmHg 60%
20:00 +16°C° 0 mm 3 mps 686 mmHg 72%
21:00 +14°C° 0 mm 2 mps 686 mmHg 84%
22:00 +14°C° 0 mm 2 mps 686 mmHg 87%
23:00 +13°C° 0 mm 1 mps 686 mmHg 89%

8 Agosto, Domingo

Tiempo Temperatura Precipitaciones Viento Presión Humedad
00:00 +12°C° 0 mm 1 mps 686 mmHg 91%
01:00 +12°C° 0 mm 1 mps 686 mmHg 91%
02:00 +11°C° 0 mm 1 mps 686 mmHg 91%
03:00 +11°C° 0 mm 1 mps 686 mmHg 90%
04:00 +11°C° 0 mm 1 mps 686 mmHg 89%
05:00 +12°C° 0 mm 1 mps 687 mmHg 88%
06:00 +12°C° 0 mm 1 mps 687 mmHg 86%
07:00 +15°C° 0 mm 1 mps 687 mmHg 74%
08:00 +18°C° 0 mm 1 mps 688 mmHg 62%
09:00 +21°C° 0 mm 1 mps 688 mmHg 50%
10:00 +23°C° 0 mm 2 mps 688 mmHg 44%
11:00 +24°C° 0 mm 2 mps 689 mmHg 38%
12:00 +26°C° 0 mm 3 mps 689 mmHg 33%
13:00 +27°C° 0 mm 3 mps 689 mmHg 31%
14:00 +28°C° 0 mm 3 mps 688 mmHg 29%
15:00 +29°C° 0 mm 3 mps 688 mmHg 27%
16:00 +28°C° 0 mm 3 mps 688 mmHg 32%
17:00 +26°C° 0 mm 3 mps 688 mmHg 36%
18:00 +25°C° 0 mm 3 mps 688 mmHg 40%
19:00 +21°C° 0 mm 2 mps 688 mmHg 52%
20:00 +19°C° 0 mm 2 mps 688 mmHg 65%
21:00 +16°C° 0 mm 1 mps 688 mmHg 77%
22:00 +15°C° 0 mm 1 mps 688 mmHg 77%
23:00 +15°C° 0 mm 1 mps 688 mmHg 76%
Mostrar más

Necesitamos Su Consentimiento

Meteoprog y nuestros Proveedores de Servicios pueden almacenar y acceder a sus datos personales como cookies, identificadores de dispositivo u otras tecnologías similares de su dispositivo y procesar dichos datos para personalizar contenido y anuncios, además de ofrecer funciones de redes sociales y analizar el tráfico.

  • Almacenar y/o acceder a información en su dispositivo

    Se puede almacenar o acceder a cookies, identificadores de dispositivo u otra información de su dispositivo para los fines anteriormente indicados.

  • Anuncios y contenido personalizados, medición de anuncios y contenido, percepciones del público, y desarrollo de productos

    Los anuncios y el contenido pueden personalizarse en base a su perfil. Se pueden añadir más datos para personalizar mejor los anuncios y contenidos. Se puede medir el rendimiento de los anuncios y contenidos. Se puede obtener la percepción sobre el público que ha visto los anuncios y contenidos. Dichos datos pueden usarse para desarrollar o mejorar la experiencia del usuario, sistemas y software.

Al hacer clic en ‘Estoy De Acuerdo’ usted permitirá el uso de las cookies, identificadores de dispositivo, balizas web u otras tecnologías similares indicadas. Su configuración puede cambiarse desde el navegador de su dispositivo.

Para ciertos fines, los intereses legítimos pueden ser considerados por encima del consentimiento. Puede leer más sobre ello en nuestra Política de Privacidad y Cookies.